| time (UTC) | temp C | wind direction | speed KPH | gust KPH | rain 1hr cm | rain 24hr cm | rain mn cm | humidity % | barometer mb |
| 20260508220032 | 16 | 27 | 3.2 | 16.1 | 0.00 | 0.00 | 0.00 | 68 | 1014.7 |
| 20260508214534 | 17 | 238 | 6.4 | 14.5 | 0.00 | 0.00 | 0.00 | 65 | 1015.0 |
| 20260508213032 | 17 | 236 | 8.0 | 14.5 | 0.00 | 0.00 | 0.00 | 65 | 1014.6 |
| 20260508211531 | 17 | 26 | 6.4 | 12.9 | 0.00 | 0.00 | 0.00 | 63 | 1014.5 |
| 20260508210034 | 17 | 210 | 6.4 | 12.9 | 0.00 | 0.00 | 0.00 | 66 | 1014.8 |
| 20260508204535 | 18 | 217 | 6.4 | 12.9 | 0.00 | 0.00 | 0.00 | 63 | 1014.8 |
| 20260508203031 | 17 | 34 | 6.4 | 14.5 | 0.00 | 0.00 | 0.00 | 64 | 1015.0 |
| 20260508201525 | 17 | 51 | 8.0 | 12.9 | 0.00 | 0.00 | 0.00 | 63 | 1015.2 |
| 20260508200025 | 17 | 76 | 1.6 | 9.7 | 0.00 | 0.00 | 0.00 | 62 | 1015.4 |
| 20260508194525 | 17 | 236 | 4.8 | 11.3 | 0.00 | 0.00 | 0.00 | 64 | 1015.5 |
| 20260508193023 | 17 | 118 | 3.2 | 14.5 | 0.00 | 0.00 | 0.00 | 62 | 1015.9 |
| 20260508191523 | 17 | 21 | 6.4 | 16.1 | 0.00 | 0.00 | 0.00 | 61 | 1015.7 |
| 20260508190121 | 17 | 204 | 8.0 | 12.9 | 0.00 | 0.00 | 0.00 | 63 | 1016.2 |
| 20260508184523 | 17 | 174 | 4.8 | 17.7 | 0.00 | 0.00 | 0.00 | 61 | 1016.3 |
| 20260508183021 | 17 | 46 | 8.0 | 16.1 | 0.00 | 0.00 | 0.00 | 62 | 1016.5 |
| 20260508181519 | 17 | 41 | 3.2 | 11.3 | 0.00 | 0.00 | 0.00 | 58 | 1016.5 |
| 20260508180018 | 16 | 17 | 4.8 | 19.3 | 0.00 | 0.00 | 0.00 | 58 | 1016.6 |
| 20260508174519 | 17 | 243 | 4.8 | 19.3 | 0.00 | 0.00 | 0.00 | 60 | 1016.8 |
| 20260508173015 | 16 | 38 | 6.4 | 11.3 | 0.00 | 0.00 | 0.00 | 61 | 1016.9 |
| 20260508171518 | 16 | 360 | 4.8 | 16.1 | 0.00 | 0.00 | 0.00 | 58 | 1017.2 |
| 20260508170016 | 16 | 49 | 4.8 | 12.9 | 0.00 | 0.00 | 0.00 | 60 | 1017.3 |
| 20260508164513 | 15 | 360 | 1.6 | 9.7 | 0.00 | 0.00 | 0.00 | 62 | 1017.7 |
| 20260508163016 | 16 | 170 | 8.0 | 12.9 | 0.00 | 0.00 | 0.00 | 65 | 1017.8 |
| 20260508161516 | 15 | 140 | 1.6 | 11.3 | 0.00 | 0.00 | 0.00 | 58 | 1018.1 |
| 20260508160010 | 15 | 188 | 6.4 | 14.5 | 0.00 | 0.00 | 0.00 | 64 | 1018.4 |
| 20260508154509 | 15 | 263 | 3.2 | 11.3 | 0.00 | 0.00 | 0.00 | 63 | 1018.6 |
| 20260508153016 | 14 | 196 | 4.8 | 9.7 | 0.00 | 0.00 | 0.00 | 65 | 1018.6 |
| 20260508151503 | 13 | 192 | 3.2 | 11.3 | 0.00 | 0.00 | 0.00 | 66 | 1018.8 |
| 20260508150003 | 13 | 210 | 0.0 | 12.9 | 0.00 | 0.00 | 0.00 | 64 | 1018.7 |
| 20260508144600 | 13 | 196 | 1.6 | 12.9 | 0.00 | 0.00 | 0.00 | 68 | 1018.9 |
| 20260508143117 | 12 | 190 | 3.2 | 8.0 | 0.00 | 0.00 | 0.00 | 72 | 1018.9 |
| 20260508141600 | 12 | 195 | 3.2 | 11.3 | 0.00 | 0.00 | 0.00 | 74 | 1019.0 |
| 20260508134547 | 10 | 148 | 1.6 | 9.7 | 0.00 | 0.00 | 0.00 | 87 | 1019.0 |
| 20260508133045 | 9 | 150 | 0.0 | 6.4 | 0.00 | 0.00 | 0.00 | 92 | 1019.1 |
| 20260508131544 | 8 | 126 | 0.0 | 0.0 | 0.00 | 0.00 | 0.00 | 97 | 1018.9 |
| 20260508130043 | 6 | 21 | 0.0 | 3.2 | 0.00 | 0.00 | 0.00 | 99 | 1018.8 |
| 20260508124542 | 5 | 32 | 0.0 | 0.0 | 0.00 | 0.00 | 0.00 | 99 | 1018.7 |
| 20260508123046 | 5 | 111 | 0.0 | 0.0 | 0.00 | 0.00 | 0.00 | 99 | 1018.6 |
| 20260508121539 | 5 | 115 | 0.0 | 0.0 | 0.00 | 0.00 | 0.00 | 98 | 1018.4 |
| 20260508120038 | 5 | 360 | 0.0 | 0.0 | 0.00 | 0.00 | 0.00 | 98 | 1018.3 |
| 20260508114536 | 4 | 360 | 0.0 | 0.0 | 0.00 | 0.36 | 0.00 | 98 | 1018.0 |
| 20260508113035 | 3 | 360 | 0.0 | 0.0 | 0.00 | 0.36 | 0.00 | 98 | 1017.9 |
| 20260508111536 | 3 | 360 | 0.0 | 0.0 | 0.00 | 0.36 | 0.00 | 97 | 1017.6 |
| 20260508110034 | 3 | 360 | 0.0 | 0.0 | 0.00 | 0.36 | 0.00 | 98 | 1017.0 |
| 20260508104530 | 3 | 360 | 0.0 | 0.0 | 0.00 | 0.48 | 0.00 | 97 | 1016.9 |
| 20260508103039 | 3 | 360 | 0.0 | 1.6 | 0.00 | 0.48 | 0.00 | 96 | 1016.7 |
| 20260508101525 | 4 | 360 | 0.0 | 0.0 | 0.00 | 0.48 | 0.00 | 96 | 1016.3 |
| 20260508100023 | 4 | 360 | 0.0 | 0.0 | 0.00 | 0.48 | 0.00 | 95 | 1015.9 |
| 20260508094521 | 4 | 360 | 0.0 | 0.0 | 0.00 | 0.48 | 0.00 | 96 | 1015.8 |
| 20260508093020 | 5 | 360 | 0.0 | 0.0 | 0.00 | 0.48 | 0.00 | 95 | 1015.8 |
| 20260508091516 | 5 | 360 | 0.0 | 0.0 | 0.00 | 0.48 | 0.00 | 95 | 1015.6 |
| 20260508090013 | 5 | 360 | 0.0 | 0.0 | 0.00 | 0.48 | 0.00 | 94 | 1015.5 |
| 20260508084512 | 5 | 360 | 0.0 | 1.6 | 0.00 | 0.48 | 0.00 | 93 | 1015.5 |
| 20260508083011 | 5 | 360 | 0.0 | 6.4 | 0.00 | 0.48 | 0.00 | 93 | 1015.1 |
| 20260508081507 | 6 | 360 | 0.0 | 0.0 | 0.00 | 0.48 | 0.00 | 92 | 1015.1 |
| 20260508080005 | 6 | 360 | 0.0 | 6.4 | 0.00 | 0.48 | 0.00 | 91 | 1014.8 |
| 20260508074504 | 6 | 360 | 3.2 | 6.4 | 0.00 | 0.48 | 0.00 | 90 | 1014.8 |
| 20260508073000 | 6 | 360 | 0.0 | 3.2 | 0.00 | 0.48 | 0.00 | 88 | 1014.6 |
| 20260508071558 | 7 | 360 | 0.0 | 6.4 | 0.00 | 0.48 | 0.00 | 88 | 1014.4 |
| 20260508070055 | 7 | 360 | 0.0 | 6.4 | 0.00 | 0.48 | 0.00 | 87 | 1014.4 |
| 20260508064552 | 7 | 106 | 1.6 | 8.0 | 0.00 | 0.48 | 0.00 | 86 | 1014.2 |
| 20260508063055 | 8 | 105 | 1.6 | 6.4 | 0.00 | 0.48 | 0.00 | 85 | 1014.3 |
| 20260508061547 | 8 | 103 | 0.0 | 6.4 | 0.00 | 0.48 | 0.00 | 83 | 1014.2 |
| 20260508060057 | 9 | 321 | 0.0 | 9.7 | 0.00 | 0.48 | 0.00 | 83 | 1014.0 |
| 20260508054618 | 8 | 94 | 3.2 | 11.3 | 0.00 | 0.48 | 0.00 | 84 | 1014.0 |
| 20260508053049 | 9 | 114 | 4.8 | 14.5 | 0.00 | 0.48 | 0.00 | 83 | 1014.1 |
| 20260508051537 | 10 | 242 | 1.6 | 8.0 | 0.00 | 0.48 | 0.00 | 83 | 1014.1 |
| 20260508050034 | 10 | 360 | 0.0 | 6.4 | 0.00 | 0.48 | 0.00 | 79 | 1014.3 |
| 20260508044533 | 10 | 59 | 9.7 | 22.5 | 0.00 | 0.48 | 0.00 | 78 | 1014.2 |
| 20260508043035 | 10 | 67 | 4.8 | 12.9 | 0.00 | 0.48 | 0.00 | 79 | 1014.1 |
| 20260508041528 | 10 | 57 | 6.4 | 17.7 | 0.00 | 0.48 | 0.00 | 81 | 1014.2 |
| 20260508040031 | 10 | 51 | 9.7 | 17.7 | 0.00 | 0.48 | 0.00 | 82 | 1014.1 |
| 20260508034533 | 10 | 109 | 9.7 | 17.7 | 0.00 | 0.48 | 0.48 | 83 | 1014.3 |
| 20260508033030 | 10 | 67 | 8.0 | 16.1 | 0.00 | 0.48 | 0.48 | 83 | 1014.3 |
| 20260508031523 | 10 | 59 | 9.7 | 19.3 | 0.00 | 0.48 | 0.48 | 86 | 1014.4 |
| 20260508030020 | 8 | 113 | 3.2 | 11.3 | 0.00 | 0.48 | 0.48 | 91 | 1014.7 |
| 20260508024518 | 8 | 94 | 3.2 | 9.7 | 0.00 | 0.56 | 0.48 | 92 | 1014.5 |
| 20260508023015 | 8 | 360 | 3.2 | 12.9 | 0.00 | 0.56 | 0.48 | 92 | 1014.1 |
| 20260508021513 | 8 | 360 | 0.0 | 0.0 | 0.00 | 0.56 | 0.48 | 92 | 1013.9 |
| 20260508020011 | 8 | 105 | 0.0 | 3.2 | 0.00 | 0.56 | 0.48 | 92 | 1013.6 |
| 20260508014510 | 8 | 103 | 1.6 | 6.4 | 0.00 | 0.58 | 0.48 | 91 | 1013.6 |
| 20260508013006 | 8 | 51 | 1.6 | 3.2 | 0.00 | 0.58 | 0.48 | 89 | 1013.1 |
| 20260508011504 | 9 | 27 | 0.0 | 6.4 | 0.00 | 0.58 | 0.48 | 87 | 1012.8 |
| 20260508004558 | 10 | 360 | 0.0 | 11.3 | 0.00 | 0.71 | 0.48 | 81 | 1012.9 |
| 20260508003055 | 11 | 82 | 1.6 | 22.5 | 0.00 | 0.71 | 0.48 | 81 | 1012.6 |
| 20260508001556 | 11 | 84 | 4.8 | 19.3 | 0.00 | 0.71 | 0.48 | 79 | 1012.3 |
| 20260508000051 | 11 | 294 | 4.8 | 17.7 | 0.00 | 0.71 | 0.48 | 78 | 1012.1 |
| 20260507234549 | 11 | 96 | 6.4 | 14.5 | 0.00 | 1.02 | 0.48 | 79 | 1012.0 |
| 20260507233149 | 12 | 84 | 6.4 | 20.9 | 0.00 | 1.02 | 0.48 | 79 | 1011.8 |
| 20260507231548 | 11 | 296 | 6.4 | 16.1 | 0.00 | 1.02 | 0.48 | 80 | 1011.7 |
| 20260507230045 | 12 | 258 | 9.7 | 20.9 | 0.00 | 1.02 | 0.48 | 82 | 1011.7 |
| 20260507224545 | 12 | 217 | 9.7 | 24.1 | 0.00 | 1.04 | 0.48 | 82 | 1011.6 |
| 20260507223039 | 12 | 91 | 8.0 | 25.7 | 0.00 | 1.04 | 0.48 | 82 | 1011.2 |
| 20260507221536 | 13 | 54 | 9.7 | 19.3 | 0.00 | 1.04 | 0.48 | 80 | 1011.0 |